Stations météo

réclame
Mon MeteoGroup
Le Talut, France (7207): Température de l'air & dewpoint: 11.12.2018 02:00:00 - 17.12.2018 02:00:00 (CET)Le Talut, France (7207): Vitesse du vent & gusts: 11.12.2018 02:00:00 - 17.12.2018 02:00:00 (CET)Le Talut, France (7207): Direction du vent: 11.12.2018 02:00:00 - 17.12.2018 02:00:00 (CET)Le Talut, France (7207): reduced air pressure: 11.12.2018 02:00:00 - 17.12.2018 02:00:00 (CET)Le Talut, France (7207): visibility: 11.12.2018 02:00:00 - 17.12.2018 02:00:00 (CET)Le Talut, France (7207): Quantités de précipitations: 11.12.2018 02:00:00 - 17.12.2018 02:00:00 (CET)
Date & Time tt [°C] td [°C] ff [km/h] ff [knt] fx [km/h] fx [knt] dd ppp [hPa] vv [km] rr [mm]
17.12.2018 02:00:00 11,5 6,4 31 17 62 34 W 1018,3 - 0,0
17.12.2018 01:00:00 11,2 5,9 37 20 63 34 W 1017,8 - 0,0
17.12.2018 00:00:00 11,0 6,7 37 20 74 40 W 1017,2 - 0,0
16.12.2018 23:00:00 11,2 5,9 36 19 70 38 W 1016,2 - 0,0
16.12.2018 22:00:00 10,5 5,9 40 21 74 40 W 1015,3 - 0,0
16.12.2018 21:00:00 11,3 5,8 32 17 63 34 W 1014,2 - 0,0
16.12.2018 20:00:00 10,9 7,0 27 15 72 39 W 1013,1 - 0,0
16.12.2018 19:00:00 10,3 6,1 28 15 69 38 WNW 1011,8 8 0,4
16.12.2018 18:00:00 10,0 6,7 34 18 66 36 W 1010,6 - 0,2
16.12.2018 17:00:00 10,6 6,7 36 20 58 32 W 1009,5 - 0,0
16.12.2018 16:00:00 9,5 6,9 35 19 81 44 W 1008,6 10 1,2
16.12.2018 15:00:00 9,9 7,1 44 24 74 40 WSW 1007,9 - 1,4
16.12.2018 14:00:00 10,9 7,9 29 16 66 36 SSW 1008,2 - 0,2
16.12.2018 13:00:00 11,1 5,8 36 19 71 38 SSW 1008,7 6 0,4
16.12.2018 12:00:00 12,3 8,6 44 24 59 32 SSW 1009,5 - 0,0
16.12.2018 11:00:00 12,5 8,8 36 20 50 27 SSW 1010,1 - 0,0
16.12.2018 10:00:00 11,7 8,5 24 13 39 21 SSW 1010,4 12 0,0
16.12.2018 09:00:00 11,8 8,6 23 12 38 21 SSW 1010,5 - 0,0
16.12.2018 08:00:00 11,9 8,6 26 14 37 20 SW 1010,7 - 0,0
16.12.2018 07:00:00 11,8 8,3 19 10 38 21 WSW 1011,2 20 0,0
16.12.2018 06:00:00 11,7 8,0 22 12 40 22 WSW 1011,4 - 0,0
16.12.2018 05:00:00 11,5 8,7 18 10 42 23 W 1012,1 - 0,0
16.12.2018 04:00:00 11,7 8,2 26 14 40 22 W 1012,4 - 0,0
16.12.2018 03:00:00 11,7 8,2 27 15 50 27 W 1012,6 - 0,0
16.12.2018 02:00:00 12,0 8,1 33 18 51 28 W 1012,4 - 0,0
16.12.2018 01:00:00 11,6 8,8 26 14 51 28 W 1012,4 - 0,0
16.12.2018 00:00:00 11,9 7,8 37 20 57 31 W 1012,2 - 0,0
15.12.2018 23:00:00 11,9 8,0 34 19 61 33 W 1011,9 - 0,0
15.12.2018 22:00:00 12,1 8,6 31 17 64 34 W 1011,7 - 0,0
15.12.2018 21:00:00 12,1 8,4 41 22 67 36 W 1011,3 - 0,0
15.12.2018 20:00:00 12,1 8,8 40 21 74 40 W 1010,7 - 0,0
15.12.2018 19:00:00 12,6 10,1 40 22 74 40 W 1009,5 - 0,0
15.12.2018 18:00:00 13,3 12,7 43 23 77 42 WSW 1008,2 - 0,4
15.12.2018 17:00:00 13,2 12,7 52 28 75 41 SW 1007,8 - 1,4
15.12.2018 16:00:00 13,5 13,0 45 25 70 38 SW 1008,2 4,0 0,8
15.12.2018 15:00:00 13,4 12,9 39 21 63 34 SW 1008,6 - 0,0
15.12.2018 14:00:00 13,3 13,0 38 20 62 33 SW 1009,9 - 0,0
15.12.2018 13:00:00 13,3 13,0 40 22 61 33 SW 1010,9 4,0 0,2
15.12.2018 12:00:00 13,2 12,9 36 19 57 31 SW 1011,5 - 0,8
15.12.2018 11:00:00 13,0 12,7 36 20 48 26 SSW 1012,2 - 0,4
15.12.2018 10:00:00 12,7 12,4 36 19 55 30 SSW 1012,6 2,0 0,2
15.12.2018 09:00:00 12,5 12,2 39 21 59 32 SSW 1012,5 - 0,0
15.12.2018 08:00:00 12,0 11,7 48 26 65 35 S 1012,6 - 0,4
15.12.2018 07:00:00 11,6 11,1 41 22 66 35 S 1013,7 4,0 1,0
15.12.2018 06:00:00 11,5 11,0 41 22 61 33 S 1014,2 - 1,5
15.12.2018 05:00:00 11,3 10,8 39 21 58 31 SSE 1015,4 - 3,4
15.12.2018 04:00:00 11,2 10,4 43 23 60 33 S 1016,0 - 1,2
15.12.2018 03:00:00 11,1 10,2 40 22 52 28 SSE 1016,7 - 0,4
15.12.2018 02:00:00 10,8 10,0 31 17 56 31 S 1017,6 - 0,6
15.12.2018 01:00:00 10,6 9,8 42 23 54 29 SSE 1018,3 - 0,2
15.12.2018 00:00:00 10,4 9,2 43 23 56 30 SSE 1018,8 - 0,0
14.12.2018 23:00:00 9,7 8,5 39 21 57 31 SE 1019,7 - 0,0
14.12.2018 22:00:00 9,4 7,7 31 17 54 29 SE 1020,6 - 0,0
14.12.2018 21:00:00 8,9 6,7 27 15 47 26 SE 1020,9 - 0,0
14.12.2018 20:00:00 8,1 5,6 26 14 44 24 SE 1021,3 - 0,0
14.12.2018 19:00:00 7,2 4,3 23 12 44 24 SE 1021,4 - 0,0
14.12.2018 18:00:00 6,5 3,3 20 11 39 21 SE 1021,5 - 0,0
14.12.2018 17:00:00 5,8 2,4 16 9 41 22 SE 1021,6 - 0,0
14.12.2018 16:00:00 5,6 2,4 15 8 35 19 ESE 1021,2 10 0,0
14.12.2018 15:00:00 5,3 2,1 16 8 31 17 SE 1021,2 - 0,0
14.12.2018 14:00:00 4,9 2,6 14 8 32 17 E 1021,0 - 0,0
14.12.2018 13:00:00 5,1 2,1 13 7 31 17 ESE 1021,3 8 0,0
14.12.2018 12:00:00 4,8 2,0 13 7 32 17 ESE 1021,3 - 0,0
14.12.2018 11:00:00 4,6 2,1 14 7 34 19 E 1021,4 - 0,0
14.12.2018 10:00:00 3,7 1,4 23 12 35 19 E 1020,4 8 0,0
14.12.2018 09:00:00 3,4 1,4 16 8 37 20 E 1019,9 - 0,0
14.12.2018 08:00:00 3,6 1,6 19 11 30 16 E 1019,1 - 0,0
14.12.2018 07:00:00 3,4 1,6 14 8 25 14 ENE 1018,8 6 0,0
14.12.2018 06:00:00 3,7 1,7 17 9 31 17 E 1017,8 - 0,0
14.12.2018 05:00:00 3,8 1,8 16 9 28 15 ENE 1017,2 - 0,0
14.12.2018 04:00:00 4,0 1,9 17 9 30 16 E 1017,0 - 0,0
14.12.2018 03:00:00 4,2 2,1 16 9 34 18 E 1016,5 - 0,0
14.12.2018 02:00:00 4,1 1,8 23 12 41 22 E 1015,9 - 0,2
14.12.2018 01:00:00 4,3 2,5 24 13 38 21 E 1015,4 - 0,4
14.12.2018 00:00:00 4,5 2,5 25 14 36 20 E 1015,1 - 0,0
13.12.2018 23:00:00 4,4 2,7 22 12 40 21 E 1014,4 - 0,0
13.12.2018 22:00:00 4,5 3,0 24 13 42 23 E 1013,8 - 0,2
13.12.2018 21:00:00 4,5 3,2 24 13 40 22 E 1012,9 - 0,0
13.12.2018 20:00:00 4,6 3,6 22 12 41 22 E 1012,0 - 0,4
13.12.2018 19:00:00 5,0 4,1 23 12 38 20 E 1011,5 4,0 0,2
13.12.2018 18:00:00 5,3 4,3 26 14 46 25 E 1010,7 - 0,0
13.12.2018 17:00:00 5,3 4,4 26 14 47 26 E 1009,7 - 0,0
13.12.2018 16:00:00 5,0 4,3 29 16 54 29 E 1008,7 4,0 0,2
13.12.2018 15:00:00 5,2 4,3 33 18 61 33 E 1007,7 - 0,2
13.12.2018 14:00:00 5,4 4,5 41 22 63 34 E 1007,2 - 0,0
13.12.2018 13:00:00 5,5 4,6 41 22 72 39 E 1006,9 8 0,0
13.12.2018 12:00:00 6,1 5,4 43 23 68 37 E 1006,8 - 0,0
13.12.2018 11:00:00 6,4 5,5 33 18 62 33 E 1007,1 - 0,0
13.12.2018 10:00:00 6,8 5,9 29 16 63 34 E 1006,3 8 0,6
13.12.2018 09:00:00 7,2 6,1 29 15 60 32 E 1006,0 - 0,4
13.12.2018 08:00:00 7,7 6,3 32 17 73 40 E 1005,7 - 0,0
13.12.2018 07:00:00 8,0 6,1 33 18 67 36 E 1005,9 12 0,0
13.12.2018 06:00:00 8,1 6,2 22 12 67 36 ESE 1006,5 - 0,0
13.12.2018 05:00:00 8,1 6,6 26 14 75 41 ESE 1006,9 - 0,0
13.12.2018 04:00:00 7,9 6,7 33 18 72 39 E 1007,1 - 0,0
13.12.2018 03:00:00 7,7 6,5 29 16 65 35 E 1008,0 - 0,0
13.12.2018 02:00:00 8,2 7,1 23 13 61 33 ESE 1008,9 - 0,2
13.12.2018 01:00:00 8,4 7,2 26 14 57 31 ESE 1009,8 - 0,0
13.12.2018 00:00:00 8,6 7,4 19 11 67 36 ESE 1010,8 - 0,0
12.12.2018 23:00:00 8,5 7,1 26 14 64 35 ESE 1011,2 - 0,0
12.12.2018 22:00:00 8,4 6,9 22 12 51 28 E 1012,6 - 0,0
12.12.2018 21:00:00 8,5 6,8 20 11 46 25 E 1014,0 - 0,0
12.12.2018 20:00:00 8,5 6,5 21 11 42 23 ESE 1014,6 - 0,0
12.12.2018 19:00:00 8,1 5,9 25 13 43 23 SE 1015,3 16 0,0
12.12.2018 18:00:00 8,4 6,5 18 10 48 26 E 1015,7 16 0,0
12.12.2018 17:00:00 8,2 6,3 15 8 36 19 E 1016,5 - 0,0
12.12.2018 16:00:00 8,4 6,4 10 5 35 19 E 1017,0 16 0,0
12.12.2018 15:00:00 8,4 6,5 10 5 27 14 E 1017,5 - 0,0
12.12.2018 14:00:00 8,8 7,1 12 6 30 16 E 1018,1 - 0,0
12.12.2018 13:00:00 8,6 7,1 11 6 35 19 E 1018,9 - 0,0
12.12.2018 12:00:00 8,3 7,2 16 9 29 16 E 1019,7 - 0,0
12.12.2018 11:00:00 8,7 7,9 18 10 30 16 E 1019,8 - 0,0
12.12.2018 10:00:00 8,5 7,9 16 9 24 13 ENE 1019,3 8 0,0
12.12.2018 09:00:00 8,5 7,7 11 6 17 9 ENE 1019,4 - 0,0
12.12.2018 08:00:00 9,0 8,1 8 5 22 12 E 1019,2 - 0,0
12.12.2018 07:00:00 9,9 9,0 9 5 32 17 E 1018,8 15 0,0
12.12.2018 06:00:00 9,8 8,6 18 10 34 18 E 1018,8 - 0,0
12.12.2018 05:00:00 9,6 8,0 6 4 27 14 E 1019,1 - 0,0
12.12.2018 04:00:00 9,7 8,5 11 6 24 13 ESE 1018,8 - 0,0
12.12.2018 03:00:00 9,7 8,3 6 3 45 24 N 1018,6 - 1,2
12.12.2018 02:00:00 9,9 9,0 34 19 54 29 SSE 1019,4 - 1,2
12.12.2018 01:00:00 10,7 7,6 37 20 50 27 SSE 1019,3 - 0,0
12.12.2018 00:00:00 10,8 7,3 36 19 50 27 SSE 1019,6 - 0,0
11.12.2018 23:00:00 11,0 7,3 35 19 46 25 SSE 1020,0 - 0,0
11.12.2018 22:00:00 11,0 6,9 28 15 44 24 S 1020,8 - 0,0
11.12.2018 21:00:00 10,7 7,2 34 18 46 25 SSE 1020,8 - 0,0
11.12.2018 20:00:00 10,7 6,8 32 17 45 24 SSE 1021,1 - 0,0
11.12.2018 19:00:00 10,5 7,0 32 18 45 24 SSE 1021,0 18 0,0
11.12.2018 18:00:00 10,6 6,9 30 16 48 26 SE 1021,2 - 0,0
11.12.2018 17:00:00 10,6 6,7 31 17 44 24 SE 1021,2 - 0,0
11.12.2018 16:00:00 10,8 6,5 32 18 44 24 SSE 1022,1 18 0,0
11.12.2018 15:00:00 11,0 6,5 34 18 45 25 SE 1022,1 - 0,0
11.12.2018 14:00:00 10,8 6,5 34 18 44 24 SSE 1022,9 - 0,0
11.12.2018 13:00:00 10,8 6,9 31 17 46 25 SSE 1023,5 - 0,0
11.12.2018 12:00:00 10,5 6,8 34 19 54 29 SSE 1024,1 - 0,0
11.12.2018 11:00:00 10,4 6,9 32 17 56 30 SE 1024,6 - 0,0
11.12.2018 10:00:00 10,1 6,6 18 10 42 23 ESE 1024,8 15 0,0
11.12.2018 09:00:00 9,6 6,7 14 7 37 20 ESE 1025,3 - 0,0
11.12.2018 08:00:00 9,8 6,9 14 8 38 20 ESE 1025,1 - 0,0
11.12.2018 07:00:00 10,4 7,6 15 8 40 22 ESE 1025,0 15 0,0
11.12.2018 06:00:00 10,3 6,8 21 12 31 17 SE 1025,2 - 0,0
11.12.2018 05:00:00 10,1 7,0 11 6 29 16 SE 1026,0 - 0,0
11.12.2018 04:00:00 9,2 6,8 12 6 19 10 E 1026,9 - 0,2
11.12.2018 03:00:00 9,1 7,0 9 5 17 9 E 1027,8 - 0,0
11.12.2018 02:00:00 7,6 6,2 5 3 11 6 E 1028,4 - 0,0

tt = Température de l'air
td = dewpoint
ff = Vitesse du vent
fx = gusts
dd = Direction du vent
ppp = reduced air pressure
vv = visibility
rr = Quantités de précipitations

stations d'obs. à proximité